#timestamp,LO_Frequency,Hit,StdDev 
1624946415.4,286046996.6,N
1624946435.3,286046997.0,N
1624946455.1,286046997.8,N
1624946475.9,286046997.0,N
1624946495.7,286046999.4,N
1624946515.5,286046999.0,N
1624946535.4,286046998.7,N
1624946555.2,286047001.1,N
1624946575.0,286046998.3,N
1624946576.0,286046998.3,N
1624946595.8,286046998.3,N
1624946615.6,286046996.9,N
1624946635.5,286046999.5,N
1624946655.3,286046996.5,N
1624946675.1,286046999.2,N
1624946695.9,286046998.4,N
1624946715.7,286046996.8,N
1624946735.5,286046997.2,N
1624946755.4,286046996.9,N
1624946775.2,286046997.7,N
1624946795.1,286046996.7,N
1624946796.0,286046996.7,N
1624946815.8,286046997.3,N
1624946835.6,286046995.3,Y
1624946855.5,286046997.1,P
1624946875.3,286046997.5,P
1624946895.1,286046997.1,P
1624946915.9,286046998.3,Y
1624946935.7,286046998.3,P
1624946955.6,286047002.8,P
1624946975.4,286047001.5,N
1624946995.2,286047004.1,N
1624947015.1,286047001.5,N
1624947016.0,286047001.5,N
1624947035.8,286047000.2,N
1624947055.6,286047000.6,N
1624947075.5,286047001.2,N
1624947095.3,286046998.1,N
1624947115.2,286047000.4,N
1624947135.9,286046998.8,N
1624947155.7,286047000.3,N
1624947175.6,286046996.6,N
1624947195.4,286047001.1,N
1624947215.2,286047000.9,N
1624947235.1,286047000.4,N
1624947236.0,286047000.4,N
1624947255.8,286047000.5,N
1624947275.7,286047002.5,N
1624947295.5,286047002.7,N
1624947315.3,286047000.9,N
1624947335.2,286046999.4,N
1624947355.0,286046998.2,N
1624947355.9,286046998.2,N
1624947375.8,286046999.3,N
1624947395.6,286046999.4,N
1624947415.4,286046998.7,N
1624947435.3,286046998.5,N
1624947455.1,286046999.6,N
1624947475.9,286046999.0,N
1624947495.7,286046999.5,N
1624947515.5,286046999.6,N
1624947535.4,286046996.7,N
1624947555.2,286046997.3,N
1624947575.0,286046997.1,N
1624947575.9,286046997.1,N
1624947595.8,286046997.4,N
1624947615.6,286046997.4,N
1624947635.5,286046997.0,N
1624947655.3,286046997.9,N
1624947675.1,286046995.3,N
1624947695.9,286046994.0,Y
1624947715.7,286046997.0,P
1624947735.5,286046999.0,N
1624947755.4,286046996.7,P
1624947775.2,286046996.7,Y
1624947795.1,286047000.5,P
1624947796.0,286047000.5,N
1624947815.8,286047000.2,N
1624947835.6,286047000.7,N
1624947855.5,286047000.2,N
1624947875.3,286047000.3,N
1624947895.1,286046998.2,N
1624947915.9,286047000.8,N
1624947935.7,286046999.1,N
1624947955.6,286046996.9,Y
1624947975.4,286046999.4,P
1624947995.2,286046998.5,P
1624948015.1,286046998.7,N
1624948016.0,286046998.7,N
1624948035.8,286046999.3,N
1624948055.7,286046999.0,N
1624948075.5,286046998.7,Y
1624948095.3,286047000.6,P
1624948115.2,286047000.5,N
1624948135.0,286047002.8,P
1624948135.9,286047002.8,N
1624948155.7,286046999.8,N
1624948175.6,286047000.0,N
1624948195.4,286047002.4,N
1624948215.3,286047000.4,N
1624948235.1,286047001.0,N
1624948255.8,286047000.1,N
1624948275.7,286047000.1,N
1624948295.5,286047000.8,N
1624948315.4,286047000.2,N
1624948335.2,286046999.8,N
1624948355.0,286047000.1,N
1624948355.9,286047000.1,N
1624948375.8,286047000.3,N
1624948395.6,286047000.3,N
1624948415.4,286047001.9,N
1624948435.3,286047004.3,Y
1624948455.1,286047001.8,P
1624948475.9,286047002.4,P
1624948495.7,286047002.4,P
1624948515.5,286047001.0,N
1624948535.4,286046998.4,N
1624948555.2,286046999.4,N
1624948575.0,286047011.9,Y
1624948576.0,286046998.9,P
1624948595.8,286046996.9,P
1624948615.6,286046999.2,N
1624948635.5,286047001.1,N
1624948655.3,286047000.7,N
1624948675.1,286047000.1,N
1624948695.9,286047002.0,N
1624948715.7,286047001.8,N
1624948735.5,286047003.1,N
1624948755.4,286047004.5,N
1624948775.2,286047005.8,N
1624948795.1,286047005.1,N
1624948796.0,286047005.1,N
1624948815.8,286047004.4,N
1624948835.6,286047004.2,N
1624948855.5,286047003.7,N
1624948875.3,286047005.1,N
1624948895.1,286047005.2,N
1624948915.9,286047006.0,N
1624948935.7,286047006.0,N
1624948955.6,286047005.6,N
1624948975.4,286047005.8,N
1624948995.2,286047003.0,N
1624949015.1,286047005.2,N
1624949016.0,286047005.2,N
1624949035.8,286047005.5,N
1624949055.7,286047003.8,N
1624949075.5,286047002.5,N
1624949095.3,286047002.1,N
1624949115.2,286047001.9,N
1624949135.0,286047002.0,N
1624949135.9,286047002.0,N
1624949155.8,286047001.4,N
1624949175.6,286047001.5,N
1624949195.4,286047003.3,N
1624949215.3,286047006.0,Y
1624949235.1,286047000.3,P
1624949255.9,286046998.5,N
1624949275.7,286047001.1,N
1624949295.5,286046998.2,N
1624949315.4,286046998.5,N
1624949335.2,286047000.9,N
1624949355.0,286046998.8,N
1624949356.0,286046998.8,N
1624949375.8,286046999.5,N
1624949395.6,286046997.0,N
1624949415.5,286046998.1,N
1624949435.3,286046998.9,N
1624949455.1,286046996.7,N
1624949475.9,286046999.0,N
1624949495.7,286046998.8,N
1624949515.6,286046996.7,N
1624949535.4,286046998.6,N
1624949555.2,286046998.1,N
1624949575.1,286046998.8,N
1624949576.0,286046998.8,N
1624949595.8,286047000.4,N
1624949615.7,286047002.6,N
1624949635.5,286047000.5,N
1624949655.3,286047000.6,N
1624949675.2,286047001.1,N
1624949695.0,286047001.1,N
1624949695.9,286047001.1,N
1624949715.7,286046999.9,N
1624949735.6,286047000.1,N
1624949755.4,286047001.5,N
1624949775.3,286047004.4,Y
1624949795.1,286047004.1,P
1624949796.0,286047004.1,N
1624949815.8,286047004.0,N
1624949835.7,286047000.4,N
1624949855.5,286047000.8,N
1624949875.3,286046998.3,N
1624949895.2,286046998.7,N
1624949915.0,286046998.5,N
1624949915.9,286046998.5,N
1624949935.8,286046998.1,N
1624949955.6,286047001.0,N
1624949975.4,286046998.9,N
1624949995.3,286046999.6,N
